Flag for U.S.A. Weather past 2 weeks in Sacramento, California, U.S.A.

Now
45 °F

Fog.


Feels Like: 45 °F
Forecast: 41 / 61 °F
Wind: No wind

Location: Sacramento Executive Airport

Current Time: Feb 1, 2015 at 3:49:32 AM

Latest Report: Feb 1, 2015 at 2:53 AM


Visibility: 4 mi

Pressure: 30.07 "Hg

Humidity: 90%

Dew point: 42 °F

Location of SacramentoLocation

Historic Weather in Sacramento — Graph

°F

Sacramento temperature yesterday

Maximum temperature yesterday: 73 °F (at 12:53 PM)
Minimum temperature yesterday: 47 °F (at 5:53 AM)
Average temperature yesterday: 58 °F

Past Weeks' High & Low Weather Summary

 TemperatureHumidityPressure
High73 °F (Jan 31, 12:53 PM)97% (Jan 18, 11:48 AM)30.40 "Hg (Jan 18, 11:48 AM)
Low39 °F (Jan 23, 12:53 AM)23% (Jan 31, 12:53 PM)29.86 "Hg (Jan 30, 3:53 PM)
Average51 °F82%30.17 "Hg
* Reported Jan 17 3:03 AM — Feb 1 2:53 AM, Sacramento, Weather by CustomWeather, © 2014

Note: Actual official high and low records may vary slightly from our data, if they occured in-between our weather recording intervals... More about our weather records

Advertising

Sacramento weather history for previous 24 hours

 ConditionsComfort  
Time TempWeatherWind HumidityBarometerVisibility
2:53 AM
Feb 1
45 °FFog.No wind90%30.07 "Hg4 mi
1:53 AM45 °FFog.No wind93%30.07 "Hg1 mi
12:53 AM46 °FFog.No wind89%30.06 "Hg3 mi
11:53 PM
Jan 31
50 °FFog.3 mph86%30.06 "Hg4 mi
10:53 PM52 °FClear.5 mph83%30.04 "Hg4 mi
9:53 PM53 °FClear.5 mph80%30.03 "Hg5 mi
8:53 PM54 °FClear.8 mph74%30.02 "Hg7 mi
7:53 PM56 °FClear.5 mph58%30.01 "Hg10 mi
6:53 PM59 °FClear.8 mph54%29.98 "Hg10 mi
5:53 PM60 °FClear.No wind47%29.96 "Hg10 mi
4:53 PM67 °FSunny.5 mph41%29.95 "Hg10 mi
3:53 PM72 °FSunny.7 mph31%29.95 "Hg10 mi
2:53 PM73 °FSunny.15 mph23%29.95 "Hg10 mi
1:53 PM73 °FSunny.15 mph23%29.94 "Hg10 mi
12:53 PM73 °FSunny.16 mph23%29.95 "Hg10 mi
11:53 AM70 °FSunny.12 mph29%29.97 "Hg10 mi
10:53 AM63 °FSunny.9 mph34%29.99 "Hg10 mi
9:53 AM58 °FSunny.13 mph39%29.99 "Hg10 mi
8:53 AM55 °FSunny.10 mph40%29.98 "Hg10 mi
7:53 AM50 °FSunny.9 mph48%29.97 "Hg10 mi
6:53 AM47 °FClear.No wind56%29.96 "Hg10 mi
5:53 AM47 °FClear.6 mph59%29.93 "Hg10 mi
4:53 AM49 °FClear.8 mph55%29.92 "Hg10 mi
3:53 AM50 °FClear.10 mph57%29.91 "Hg10 mi
Weather by CustomWeather, © 2014

See weather overviewHow to use our weather pages